Location: Gerlach
(40.6516°N, 119.3568°W)
Time: 17:16:45
(UTC-07:00)

ITAMSAT 1 - Pass Details

Date: 13 August 2024
Orbit: 782 x 795 km, 98.8° (Epoch: 14 September)

Event Time Altitude Azimuth Distance (km) Brightness Sun altitude
Exits shadow 22:02:23 20° 194° (SSW) 1,755 9.2 -21.2°
Maximum altitude 22:05:44 48° 260° (W) 1,029 8.4 -21.6°
Drops below altitude 10° 22:10:48 10° 335° (NNW) 2,370 11.1 -22.3°
Sets 22:13:13 0° 341° (NNW) 3,305 12.0 -22.6°
